CW1792 Weather Reports


Display with metric or nautical units.
time (UTC)temp
F
wind
direction
speed
MPH
gust
MPH
rain 1hr
in
rain 24hr
in
rain mn
in
humidity
%
barometer
mb
20181212010204 53 337 0.0 0.0 0.00 0.03 0.02 69 1022.0
20181212005704 54 337 0.0 0.0 0.00 0.03 0.02 67 1022.0
20181212005204 54 337 0.0 0.0 0.00 0.03 0.02 66 1022.0
20181212004704 55 337 0.0 0.0 0.00 0.03 0.02 65 1021.9
20181212004204 55 337 0.0 0.0 0.00 0.03 0.02 64 1021.8
20181212003704 56 337 0.0 0.0 0.00 0.03 0.02 62 1021.9
20181212003204 56 337 0.0 0.0 0.00 0.03 0.02 60 1022.0
20181212002704 56 337 0.0 0.0 0.00 0.03 0.02 60 1021.9
20181212002204 57 337 0.0 3.0 0.00 0.03 0.02 58 1021.9
20181212001704 57 337 0.0 1.0 0.00 0.03 0.02 57 1021.8
20181212001204 57 338 0.0 0.0 0.00 0.03 0.02 55 1021.8
20181212000704 57 337 1.0 2.0 0.00 0.03 0.02 54 1021.8
20181212000204 57 337 0.0 1.0 0.00 0.03 0.02 53 1021.7
20181211235704 57 339 1.0 3.0 0.00 0.03 0.02 51 1021.7
20181211235204 57 316 2.0 3.0 0.00 0.03 0.02 50 1021.6
20181211234704 57 325 1.0 5.0 0.00 0.03 0.02 50 1021.5
20181211234204 57 341 1.0 5.0 0.00 0.03 0.02 50 1021.4
20181211233704 57 324 2.0 8.0 0.00 0.03 0.02 49 1021.4
20181211233204 57 333 1.0 3.0 0.00 0.03 0.02 51 1021.3
20181211232704 57 318 1.0 5.0 0.00 0.03 0.02 51 1021.3
20181211232204 57 337 2.0 5.0 0.00 0.03 0.02 51 1021.2
20181211231704 57 339 1.0 6.0 0.00 0.03 0.02 50 1021.2
20181211231204 57 344 2.0 5.0 0.00 0.03 0.02 51 1021.2
20181211230704 57 9 2.0 5.0 0.00 0.03 0.02 52 1021.2
20181211230204 57 329 1.0 6.0 0.00 0.03 0.02 50 1021.2
20181211225704 57 18 1.0 5.0 0.00 0.03 0.02 50 1021.0
20181211225204 56 14 2.0 6.0 0.00 0.03 0.02 51 1021.1
20181211224704 56 328 2.0 3.0 0.00 0.03 0.02 51 1021.1
20181211224204 56 27 1.0 7.0 0.00 0.03 0.02 50 1021.2
20181211223704 56 356 3.0 6.0 0.00 0.03 0.02 52 1021.2
20181211223205 55 351 2.0 6.0 0.00 0.03 0.02 52 1021.2
20181211222704 55 350 1.0 5.0 0.00 0.03 0.02 53 1021.2
20181211222204 55 320 2.0 5.0 0.00 0.03 0.02 56 1021.3
20181211221704 54 323 1.0 3.0 0.00 0.03 0.02 57 1021.3
20181211221204 54 11 0.0 5.0 0.00 0.03 0.02 57 1021.3
20181211220704 54 338 1.0 3.0 0.00 0.03 0.02 58 1021.3
20181211220204 54 334 0.0 3.0 0.00 0.03 0.02 59 1021.3
20181211215704 53 296 1.0 5.0 0.00 0.03 0.02 59 1021.3
20181211215204 53 327 1.0 2.0 0.00 0.03 0.02 61 1021.3
20181211214704 53 278 1.0 3.0 0.00 0.03 0.02 63 1021.3
20181211214204 52 41 0.0 1.0 0.00 0.03 0.02 63 1021.3
20181211213704 52 41 0.0 2.0 0.00 0.03 0.02 65 1021.4
20181211213204 52 40 1.0 5.0 0.00 0.03 0.02 67 1021.4
20181211212704 51 65 0.0 2.0 0.00 0.03 0.02 69 1021.4
20181211212204 51 66 2.0 5.0 0.00 0.03 0.02 70 1021.5
20181211211704 50 45 2.0 3.0 0.00 0.03 0.02 72 1021.7
20181211211204 50 13 0.0 2.0 0.00 0.03 0.02 77 1021.8
20181211210704 49 10 1.0 3.0 0.00 0.03 0.02 83 1021.8
20181211210204 49 329 1.0 3.0 0.00 0.03 0.02 86 1021.8
20181211205704 49 71 1.0 3.0 0.00 0.03 0.02 90 1021.9
20181211205204 49 347 0.0 2.0 0.00 0.03 0.02 92 1022.0
20181211204704 48 347 0.0 1.0 0.00 0.03 0.02 94 1022.3
20181211204204 48 347 1.0 5.0 0.00 0.03 0.02 95 1022.4
20181211203704 48 1 0.0 1.0 0.00 0.03 0.02 95 1022.5
20181211203204 48 16 0.0 0.0 0.00 0.03 0.02 96 1022.5
20181211202704 48 16 1.0 5.0 0.00 0.03 0.02 96 1022.5
20181211202204 49 336 0.0 0.0 0.00 0.03 0.02 97 1022.6
20181211201704 48 336 0.0 0.0 0.00 0.03 0.02 97 1022.7
20181211201204 48 80 0.0 0.0 0.00 0.03 0.02 97 1022.8
20181211200704 48 80 0.0 0.0 0.00 0.03 0.02 97 1022.8
20181211200204 48 80 0.0 0.0 0.00 0.03 0.02 97 1022.9
20181211195704 48 80 0.0 1.0 0.00 0.03 0.02 97 1023.0
20181211195204 48 0 0.0 0.0 0.00 0.03 0.02 97 1023.1
20181211194704 48 2 0.0 0.0 0.00 0.03 0.02 97 1023.2
20181211194204 48 3 0.0 0.0 0.00 0.03 0.02 97 1023.3
20181211193703 48 61 0.0 0.0 0.00 0.03 0.02 97 1023.3
20181211193203 48 61 0.0 0.0 0.00 0.03 0.02 97 1023.3
20181211192704 48 33 0.0 0.0 0.00 0.03 0.02 97 1023.4
20181211192204 48 96 1.0 3.0 0.00 0.03 0.02 97 1023.5
20181211191704 47 73 0.0 0.0 0.00 0.03 0.02 97 1023.5
20181211191204 47 3 0.0 0.0 0.00 0.03 0.02 97 1023.5
20181211190704 46 1 0.0 3.0 0.00 0.03 0.02 97 1023.6
20181211190204 46 1 0.0 3.0 0.00 0.03 0.02 97 1023.7
20181211185704 46 69 0.0 1.0 0.00 0.03 0.02 97 1023.7
20181211185204 46 69 1.0 2.0 0.00 0.03 0.02 97 1023.7
20181211184704 45 41 0.0 0.0 0.00 0.03 0.02 97 1023.7
20181211184203 45 30 0.0 0.0 0.00 0.03 0.02 97 1023.8
20181211183704 45 342 0.0 0.0 0.00 0.03 0.02 97 1023.8
20181211183204 45 0 0.0 0.0 0.00 0.03 0.02 97 1023.9
20181211182704 44 0 0.0 0.0 0.00 0.03 0.02 97 1024.0
20181211182203 44 0 0.0 0.0 0.00 0.03 0.02 97 1024.0
20181211181703 44 347 0.0 0.0 0.00 0.03 0.02 97 1024.0
20181211181204 44 347 0.0 0.0 0.00 0.03 0.02 97 1023.9
20181211180704 44 25 0.0 0.0 0.00 0.03 0.02 96 1023.9
20181211180203 44 31 0.0 0.0 0.00 0.03 0.02 96 1023.8
20181211175703 43 30 0.0 0.0 0.00 0.03 0.02 97 1023.7
20181211175204 43 31 0.0 0.0 0.00 0.03 0.02 97 1023.7
20181211174703 43 31 0.0 0.0 0.00 0.03 0.02 96 1023.7
20181211174204 42 31 0.0 0.0 0.00 0.03 0.02 96 1023.7
20181211173703 42 31 0.0 0.0 0.00 0.03 0.02 96 1023.6
20181211173203 42 31 0.0 0.0 0.00 0.03 0.02 96 1023.6
20181211172703 42 0 0.0 0.0 0.00 0.03 0.02 96 1023.5
20181211172204 41 0 0.0 0.0 0.00 0.03 0.02 96 1023.5
20181211171703 41 0 0.0 0.0 0.00 0.03 0.02 96 1023.5
20181211171203 41 0 0.0 0.0 0.00 0.03 0.02 96 1023.4
20181211170703 41 0 0.0 0.0 0.00 0.03 0.02 96 1023.4
20181211170203 41 0 0.0 0.0 0.00 0.03 0.02 96 1023.4
20181211165703 40 0 0.0 0.0 0.00 0.03 0.02 96 1023.3
20181211165204 40 0 0.0 0.0 0.00 0.03 0.02 96 1023.3
20181211164703 40 0 0.0 0.0 0.00 0.03 0.02 95 1023.2
20181211164203 40 295 0.0 0.0 0.00 0.03 0.02 96 1023.1
20181211163703 40 295 0.0 0.0 0.00 0.03 0.02 96 1023.0
20181211163203 39 295 0.0 0.0 0.00 0.03 0.02 95 1023.0
20181211162703 39 295 0.0 0.0 0.00 0.03 0.02 96 1023.0
20181211162203 39 295 0.0 0.0 0.00 0.03 0.02 95 1023.0
20181211161704 39 295 0.0 0.0 0.00 0.03 0.02 95 1023.0
20181211161204 38 295 0.0 0.0 0.00 0.03 0.02 95 1023.0
20181211160703 38 295 0.0 0.0 0.00 0.03 0.02 95 1023.0
20181211160204 38 295 0.0 0.0 0.00 0.03 0.02 95 1023.0
20181211155204 38 295 0.0 0.0 0.00 0.03 0.02 95 1022.9
20181211154704 38 295 0.0 0.0 0.00 0.03 0.02 95 1022.8
20181211154204 38 295 0.0 0.0 0.01 0.03 0.02 94 1022.7
20181211153704 38 295 0.0 0.0 0.01 0.03 0.02 94 1022.7
20181211153204 38 295 0.0 0.0 0.01 0.03 0.02 94 1022.7
20181211152704 38 295 0.0 0.0 0.01 0.03 0.02 94 1022.7
20181211152204 38 295 0.0 0.0 0.01 0.03 0.02 94 1022.7
20181211151704 38 295 0.0 0.0 0.01 0.03 0.02 94 1022.7
20181211151204 38 295 0.0 0.0 0.01 0.03 0.02 94 1022.7
20181211150704 38 295 0.0 0.0 0.01 0.03 0.02 95 1022.7
20181211150205 38 295 0.0 0.0 0.01 0.03 0.02 94 1022.6
20181211145704 38 296 0.0 0.0 0.01 0.03 0.02 94 1022.6
20181211145204 38 295 0.0 0.0 0.01 0.03 0.02 94 1022.7
20181211144704 38 295 0.0 0.0 0.01 0.03 0.02 94 1022.6
20181211144204 38 295 0.0 0.0 0.00 0.02 0.01 94 1022.7
20181211143704 38 295 0.0 0.0 0.00 0.02 0.01 94 1022.6
20181211143204 39 295 0.0 0.0 0.00 0.02 0.01 94 1022.5
20181211142705 39 295 0.0 0.0 0.00 0.02 0.01 94 1022.5
20181211142204 39 295 0.0 0.0 0.00 0.02 0.01 95 1022.5
20181211141704 39 295 0.0 0.0 0.00 0.02 0.01 95 1022.4
20181211141204 39 295 0.0 0.0 0.00 0.02 0.01 95 1022.4
20181211140704 39 295 0.0 0.0 0.00 0.02 0.01 95 1022.3
20181211140204 39 295 0.0 0.0 0.00 0.02 0.01 95 1022.2
20181211135704 39 295 0.0 0.0 0.00 0.02 0.01 95 1022.1
20181211135204 39 295 0.0 0.0 0.00 0.02 0.01 95 1022.1
20181211134704 39 295 0.0 0.0 0.00 0.02 0.01 95 1022.2
20181211134204 39 295 0.0 0.0 0.00 0.02 0.01 95 1022.2
20181211133704 39 295 0.0 0.0 0.00 0.02 0.01 95 1022.2
20181211133204 39 295 0.0 0.0 0.00 0.02 0.01 94 1022.2
20181211132704 39 295 0.0 0.0 0.00 0.02 0.01 95 1022.2
20181211132204 39 295 0.0 0.0 0.00 0.02 0.01 94 1022.3
20181211131704 39 295 0.0 0.0 0.00 0.02 0.01 95 1022.3
20181211131204 39 295 0.0 0.0 0.00 0.02 0.01 94 1022.3
20181211130704 39 295 0.0 0.0 0.00 0.02 0.01 94 1022.3
20181211130204 39 295 0.0 0.0 0.00 0.02 0.01 94 1022.3
20181211125704 39 295 0.0 0.0 0.00 0.02 0.01 94 1022.3
20181211125204 39 295 0.0 0.0 0.00 0.02 0.01 94 1022.4
20181211124704 39 295 0.0 0.0 0.00 0.02 0.01 94 1022.4
20181211124204 39 295 0.0 0.0 0.00 0.02 0.01 94 1022.4
20181211123704 39 295 0.0 0.0 0.00 0.02 0.01 94 1022.4
20181211123204 40 295 0.0 0.0 0.00 0.02 0.01 94 1022.4
20181211122704 40 295 0.0 0.0 0.01 0.02 0.01 94 1022.4
20181211122204 40 295 0.0 0.0 0.01 0.02 0.01 94 1022.4
20181211121704 40 295 0.0 0.0 0.01 0.02 0.01 94 1022.4
20181211121204 40 295 0.0 0.0 0.01 0.02 0.01 94 1022.4
20181211120704 40 295 0.0 0.0 0.01 0.02 0.01 94 1022.4
20181211120204 40 295 0.0 0.0 0.01 0.02 0.01 94 1022.4
20181211115704 40 295 0.0 0.0 0.01 0.02 0.01 94 1022.4
20181211115204 40 295 0.0 0.0 0.01 0.02 0.01 94 1022.4
20181211114704 40 295 0.0 0.0 0.01 0.02 0.01 94 1022.4
20181211114204 40 295 0.0 0.0 0.01 0.02 0.01 94 1022.3
20181211113704 40 295 0.0 0.0 0.01 0.02 0.01 94 1022.4
20181211113206 40 295 0.0 0.0 0.01 0.02 0.01 94 1022.4
20181211112704 41 295 0.0 0.0 0.00 0.01 0.00 94 1022.3
20181211112204 41 295 0.0 0.0 0.00 0.01 0.00 94 1022.3
20181211111704 41 295 0.0 0.0 0.00 0.01 0.00 94 1022.3
20181211111204 41 295 0.0 0.0 0.00 0.01 0.00 94 1022.3
20181211110704 41 295 0.0 0.0 0.00 0.01 0.00 94 1022.3
20181211110204 41 295 0.0 0.0 0.00 0.01 0.00 94 1022.3
20181211105704 41 295 0.0 0.0 0.00 0.01 0.00 94 1022.2
20181211105204 41 295 0.0 0.0 0.00 0.01 0.00 94 1022.2
20181211104704 41 295 0.0 0.0 0.00 0.01 0.00 94 1022.1
20181211104204 41 295 0.0 0.0 0.00 0.01 0.00 94 1022.1
20181211103704 41 295 0.0 0.0 0.00 0.01 0.00 94 1022.3
20181211103204 41 295 0.0 0.0 0.00 0.01 0.00 94 1022.3
20181211102704 41 295 0.0 0.0 0.00 0.01 0.00 94 1022.3
20181211102204 41 295 0.0 0.0 0.00 0.02 0.00 94 1022.2
20181211101704 41 295 0.0 0.0 0.00 0.02 0.00 94 1022.2
20181211101204 41 295 0.0 0.0 0.00 0.02 0.00 94 1022.2
20181211100704 41 295 0.0 0.0 0.00 0.02 0.00 94 1022.1
20181211100204 41 295 0.0 0.0 0.00 0.02 0.00 94 1022.2
20181211095704 41 295 0.0 0.0 0.00 0.02 0.00 94 1022.0
20181211095204 41 295 0.0 0.0 0.00 0.02 0.00 94 1022.0
20181211094704 41 295 0.0 0.0 0.00 0.02 0.00 94 1022.0
20181211094204 41 295 0.0 0.0 0.00 0.02 0.00 94 1022.0
20181211093704 41 295 0.0 0.0 0.00 0.02 0.00 94 1022.1
20181211093204 42 295 0.0 0.0 0.00 0.02 0.00 94 1022.2
20181211092704 42 295 0.0 0.0 0.00 0.02 0.00 94 1022.1
20181211092204 42 295 0.0 0.0 0.00 0.02 0.00 94 1022.2
20181211091704 42 295 0.0 0.0 0.00 0.02 0.00 94 1022.2
20181211091204 42 295 0.0 0.0 0.00 0.02 0.00 94 1022.3
20181211090704 42 295 0.0 0.0 0.00 0.02 0.00 94 1022.6
20181211090204 42 295 0.0 0.0 0.00 0.02 0.00 94 1022.6
20181211085704 42 295 0.0 0.0 0.00 0.02 0.00 94 1022.6
20181211085204 43 295 0.0 0.0 0.00 0.02 0.00 94 1022.5
20181211084704 43 295 0.0 0.0 0.00 0.02 0.00 94 1022.4
20181211084204 43 295 0.0 0.0 0.00 0.02 0.00 94 1022.4
20181211083704 43 295 0.0 0.0 0.00 0.02 0.00 94 1022.4
20181211083204 43 295 0.0 0.0 0.00 0.02 0.00 94 1022.4
20181211082704 43 295 0.0 0.0 0.00 0.02 0.00 94 1022.4
20181211082203 43 295 0.0 0.0 0.00 0.02 0.00 94 1022.4
20181211081704 43 295 0.0 0.0 0.00 0.02 0.00 94 1022.4
20181211081204 43 295 0.0 0.0 0.00 0.02 0.00 94 1022.4
20181211080704 43 295 0.0 0.0 0.00 0.02 0.00 94 1022.4
20181211080204 43 295 0.0 0.0 0.00 0.02 0.00 94 1022.4
20181211075704 43 295 0.0 0.0 0.01 0.02 0.02 94 1022.5
20181211075204 43 295 0.0 0.0 0.01 0.02 0.02 94 1022.5
20181211074704 43 295 0.0 0.0 0.01 0.02 0.02 94 1022.5
20181211074204 43 295 0.0 0.0 0.01 0.02 0.02 94 1022.6
20181211073704 43 296 0.0 0.0 0.01 0.02 0.02 94 1022.5
20181211073204 43 296 0.0 0.0 0.01 0.02 0.02 93 1022.5
20181211072704 43 296 0.0 0.0 0.01 0.02 0.02 93 1022.5
20181211072204 43 296 0.0 0.0 0.01 0.02 0.02 93 1022.5
20181211071704 43 296 0.0 0.0 0.01 0.02 0.02 93 1022.4
20181211071204 43 296 0.0 0.0 0.01 0.02 0.02 93 1022.4
20181211070704 44 296 0.0 0.0 0.01 0.02 0.02 93 1022.4
20181211070204 44 296 0.0 0.0 0.01 0.02 0.02 93 1022.3
20181211065704 44 296 0.0 0.0 0.00 0.01 0.01 93 1022.4
20181211065204 44 296 0.0 0.0 0.00 0.01 0.01 93 1022.3
20181211064704 44 296 0.0 0.0 0.00 0.01 0.01 93 1022.4
20181211064204 44 296 0.0 0.0 0.00 0.01 0.01 93 1022.4
20181211063705 44 296 0.0 0.0 0.00 0.01 0.01 93 1022.4
20181211063204 44 296 0.0 0.0 0.00 0.01 0.01 93 1022.5
20181211062704 44 296 0.0 0.0 0.00 0.01 0.01 93 1022.5
20181211062204 44 296 0.0 0.0 0.00 0.01 0.01 93 1022.5
20181211061704 44 295 0.0 0.0 0.00 0.01 0.01 93 1022.5
20181211061204 44 296 0.0 0.0 0.00 0.01 0.01 93 1022.5
20181211060704 45 296 0.0 0.0 0.00 0.01 0.01 93 1022.5
20181211060204 45 296 0.0 0.0 0.00 0.01 0.01 93 1022.4
20181211055704 45 296 0.0 0.0 0.00 0.01 0.01 93 1022.4
20181211055204 45 296 0.0 0.0 0.00 0.01 0.01 93 1022.4
20181211054704 45 296 0.0 0.0 0.00 0.01 0.01 93 1022.5
20181211054204 45 296 0.0 0.0 0.00 0.01 0.01 93 1022.4
20181211053704 45 296 0.0 0.0 0.00 0.01 0.01 93 1022.5
20181211053204 45 296 0.0 0.0 0.00 0.01 0.01 93 1022.6
20181211052704 45 296 0.0 0.0 0.00 0.01 0.01 92 1022.6
20181211052204 45 296 0.0 0.0 0.00 0.01 0.01 92 1022.5
20181211051704 45 296 0.0 0.0 0.00 0.01 0.01 92 1022.5
20181211051204 45 296 0.0 0.0 0.00 0.01 0.01 92 1022.6
20181211050704 45 296 0.0 0.0 0.00 0.01 0.01 92 1022.5
20181211050204 45 296 0.0 0.0 0.00 0.01 0.01 92 1022.4
20181211045704 45 296 0.0 0.0 0.00 0.01 0.01 92 1022.5
20181211045204 45 296 0.0 0.0 0.00 0.01 0.01 92 1022.5
20181211044704 45 296 0.0 0.0 0.00 0.01 0.01 92 1022.6
20181211044204 45 296 0.0 0.0 0.00 0.01 0.01 91 1022.6
20181211043703 46 296 0.0 0.0 0.00 0.01 0.01 91 1022.5
20181211043204 46 296 0.0 0.0 0.00 0.01 0.01 91 1022.4
20181211042704 46 296 0.0 0.0 0.00 0.01 0.01 91 1022.4
20181211042204 46 296 0.0 0.0 0.00 0.01 0.01 91 1022.3
20181211041704 46 296 0.0 0.0 0.00 0.01 0.01 91 1022.3
20181211041204 46 295 0.0 0.0 0.00 0.01 0.01 91 1022.1
20181211040704 46 296 0.0 0.0 0.00 0.01 0.01 91 1022.1
20181211040204 46 296 0.0 0.0 0.00 0.01 0.01 91 1022.1
20181211035704 46 296 0.0 0.0 0.00 0.01 0.01 91 1022.2
20181211035204 46 296 0.0 0.0 0.00 0.01 0.01 91 1022.2
20181211034704 46 296 0.0 0.0 0.00 0.01 0.01 91 1022.1
20181211034204 46 296 0.0 0.0 0.00 0.01 0.01 91 1022.0
20181211033704 46 296 0.0 0.0 0.00 0.01 0.01 90 1022.0
20181211033204 47 296 0.0 0.0 0.00 0.01 0.01 90 1021.9
20181211032704 47 296 0.0 0.0 0.00 0.01 0.01 90 1021.9
20181211032204 47 296 0.0 0.0 0.00 0.01 0.01 90 1021.8
20181211031704 47 296 0.0 0.0 0.00 0.01 0.01 89 1021.8
20181211031204 47 296 0.0 0.0 0.00 0.01 0.01 89 1021.8
20181211030704 47 296 0.0 0.0 0.00 0.01 0.01 89 1021.8
20181211030204 47 296 0.0 0.0 0.00 0.01 0.01 89 1021.7
20181211025704 48 296 0.0 0.0 0.00 0.01 0.01 89 1021.8
20181211025204 48 296 0.0 0.0 0.00 0.01 0.01 89 1021.7
20181211024704 48 296 0.0 0.0 0.00 0.01 0.01 88 1021.8
20181211024203 48 296 0.0 0.0 0.00 0.01 0.01 88 1021.7
20181211023704 48 296 0.0 0.0 0.00 0.01 0.01 88 1021.7
20181211023205 48 296 0.0 0.0 0.00 0.01 0.01 87 1021.7
20181211022705 49 296 0.0 0.0 0.00 0.01 0.01 87 1021.6
20181211022204 49 296 0.0 0.0 0.00 0.01 0.01 87 1021.6
20181211021705 49 296 0.0 0.0 0.00 0.01 0.01 86 1021.6
20181211021204 49 296 0.0 0.0 0.00 0.01 0.01 86 1021.6
20181211020705 49 296 0.0 0.0 0.00 0.01 0.01 86 1021.7
20181211020204 50 296 0.0 0.0 0.00 0.01 0.01 86 1021.7
20181211015705 50 296 0.0 0.0 0.00 0.01 0.01 85 1021.8
20181211015205 50 296 1.0 2.0 0.00 0.01 0.01 85 1021.8
20181211014704 51 296 0.0 0.0 0.00 0.01 0.01 84 1021.8
20181211014204 51 296 0.0 0.0 0.00 0.01 0.01 83 1021.8
20181211013705 51 296 0.0 0.0 0.00 0.01 0.01 83 1021.8
20181211013204 52 296 0.0 0.0 0.00 0.01 0.01 83 1021.8
20181211012704 52 296 0.0 0.0 0.00 0.01 0.01 82 1021.8
20181211012205 52 296 0.0 0.0 0.00 0.01 0.01 82 1021.8
20181211011705 52 296 0.0 0.0 0.00 0.01 0.01 82 1021.7
20181211011204 53 296 0.0 0.0 0.00 0.01 0.01 82 1021.6
20181211010704 53 296 1.0 3.0 0.00 0.01 0.01 82 1021.5